Moosic, PA

7:12 PM EDT on July 25, 2016 (GMT -0400)
Wilkes-Barre-Scranton International

Weather History for KAVP - January, 2013

Change the Weather History Date:

Thursday, January 31, 2013

  Actual Average Record
Temperature  
Mean Temperature 40 °F 26 °F  
Max Temperature 56 °F 34 °F 63 °F (1916)
Min Temperature 24 °F 19 °F -7 °F (1948)
Degree Days  
Heating Degree Days 25 39  
Month to date heating degree days 1103 1208  
Since 1 July heating degree days 3217 3591  
Cooling Degree Days 0 0  
Month to date cooling degree days 0 0  
Year to date cooling degree days 0 0  
Moisture  
Dew Point 27 °F    
Average Humidity 67    
Maximum Humidity 93    
Minimum Humidity 40    
Precipitation  
Precipitation 0.45 in 0.08 in 0.46 in (1982)
Month to date precipitation 2.02 2.37  
Year to date precipitation 2.02 2.37  
Sea Level Pressure  
Sea Level Pressure 29.39 in    
Wind  
Wind Speed 19 mph (WSW)    
Max Wind Speed 35 mph    
Max Gust Speed 46 mph    
Visibility 8 miles    
Events Rain , Snow    
T = Trace of Precipitation, MM = Missing Value Source: NWS Daily Summary

Daily Weather History Graph

Daily Weather History Graph

Search for Another Location

Airport or City:

Trip Planner

Search our weather history database for the weather conditions in past years. The results will help you decide how hot, cold, wet, or windy it might be!

Date:

Astronomy

Jan. 31, 2013 Rise Set
Actual Time 7:14 AM EST 5:18 PM EST
Civil Twilight 6:45 AM EST 5:47 PM EST
Nautical Twilight 6:12 AM EST 6:20 PM EST
Astronomical Twilight 5:40 AM EST 6:53 PM EST
Moon 10:22 PM EST (1/31) 9:09 AM EST (1/31)
Length of Visible Light 11h 01m
Length of Day
10h 03m
Waning Gibbous, 80% of the Moon is Illuminated
Jan 31
Waning Gibbous
Feb 3
Last Quarter
Feb 10
New
Feb 17
First Quarter
Feb 25
Full

Hourly Weather History & Observations

Time (EST) Temp. Windchill Dew Point Humidity Pressure Visibility Wind Dir Wind Speed Gust Speed Precip Events Conditions
12:54 AM 54.0 °F - 51.1 °F 90% 29.17 in 6.0 mi SSE 8.1 mph 18.4 mph 0.11 in Rain Rain
1:54 AM 55.0 °F - 51.1 °F 86% 29.08 in 5.0 mi SSE 11.5 mph 23.0 mph 0.10 in Rain Rain
2:54 AM 55.0 °F - 51.1 °F 86% 29.07 in 5.0 mi WSW 9.2 mph - 0.09 in Rain Rain
3:09 AM 55.4 °F - 51.8 °F 88% 29.09 in 2.5 mi WSW 24.2 mph 35.7 mph 0.05 in Rain Heavy Rain
3:14 AM 53.6 °F - 51.8 °F 94% 29.08 in 3.0 mi SW 17.3 mph 35.7 mph 0.09 in Rain Rain
3:54 AM 53.1 °F - 50.0 °F 89% 29.05 in 6.0 mi SW 11.5 mph 17.3 mph 0.14 in Rain Light Rain
4:30 AM 51.8 °F - 48.2 °F 88% 29.05 in 7.0 mi SW 17.3 mph 25.3 mph 0.02 in Rain Light Rain
4:49 AM 48.2 °F - 42.8 °F 82% 29.08 in 10.0 mi WSW 17.3 mph 32.2 mph 0.02 in Rain Light Rain
4:54 AM 48.0 °F - 42.1 °F 80% 29.08 in 10.0 mi WSW 17.3 mph 31.1 mph 0.02 in Rain Light Rain
5:54 AM 43.0 °F 34.2 °F 33.1 °F 68% 29.15 in 10.0 mi WSW 20.7 mph 28.8 mph 0.00 in   Overcast
6:54 AM 39.9 °F 29.7 °F 30.0 °F 68% 29.23 in 10.0 mi WSW 23.0 mph 39.1 mph 0.00 in   Overcast
7:54 AM 37.9 °F 27.3 °F 28.0 °F 68% 29.28 in 10.0 mi WSW 21.9 mph 31.1 mph N/A   Overcast
8:54 AM 36.0 °F 24.2 °F 23.0 °F 59% 29.34 in 10.0 mi West 24.2 mph 38.0 mph N/A   Overcast
9:54 AM 36.0 °F 26.0 °F 21.9 °F 57% 29.39 in 10.0 mi West 17.3 mph 27.6 mph N/A   Overcast
10:54 AM 37.9 °F 25.5 °F 16.0 °F 41% 29.41 in 10.0 mi West 31.1 mph 39.1 mph 0.00 in   Mostly Cloudy
11:54 AM 36.0 °F 25.3 °F 19.9 °F 52% 29.42 in 10.0 mi WSW 19.6 mph 31.1 mph N/A   Mostly Cloudy
12:54 PM 36.0 °F 25.6 °F 18.0 °F 48% 29.44 in 10.0 mi WSW 18.4 mph 34.5 mph N/A   Mostly Cloudy
1:54 PM 35.1 °F 21.4 °F 19.0 °F 52% 29.48 in 10.0 mi West 32.2 mph 44.9 mph N/A   Overcast
2:54 PM 32.0 °F 20.1 °F 16.0 °F 52% 29.52 in 10.0 mi West 19.6 mph 31.1 mph N/A   Mostly Cloudy
3:54 PM 32.0 °F 19.8 °F 12.9 °F 45% 29.56 in 10.0 mi WSW 20.7 mph 34.5 mph N/A   Mostly Cloudy
4:54 PM 30.0 °F 17.9 °F 10.9 °F 45% 29.60 in 10.0 mi West 18.4 mph 33.4 mph N/A   Overcast
5:54 PM 28.0 °F 18.6 °F 14.0 °F 56% 29.65 in 10.0 mi West 10.4 mph - N/A   Mostly Cloudy
6:54 PM 27.0 °F 11.9 °F 17.1 °F 66% 29.68 in 4.0 mi West 25.3 mph 36.8 mph 0.00 in Snow Light Snow
7:54 PM 26.1 °F 11.6 °F 9.0 °F 49% 29.71 in 10.0 mi West 21.9 mph 36.8 mph 0.00 in   Scattered Clouds
8:54 PM 25.0 °F 9.2 °F 8.1 °F 49% 29.73 in 10.0 mi WSW 25.3 mph 31.1 mph N/A   Scattered Clouds
9:54 PM 24.1 °F 12.5 °F 10.0 °F 55% 29.74 in 10.0 mi WSW 12.7 mph 20.7 mph N/A   Scattered Clouds
10:54 PM 24.1 °F 11.5 °F 10.9 °F 57% 29.74 in 10.0 mi WSW 15.0 mph 20.7 mph N/A   Overcast
11:54 PM 24.1 °F 11.5 °F 10.9 °F 57% 29.75 in 10.0 mi WSW 15.0 mph 27.6 mph N/A   Clear